Location: CAO
(44.5093°N, 80.3921°W)
Time: 09:30:23
(UTC-05:00)

ARIANE 6 FM1 Upper Stage - Pass Details

Date: 22 January 2026
Orbit: 522 x 609 km, 62.0° (Epoch: 8 February)

Event Time Altitude Azimuth Distance (km) Brightness Sun altitude
Rises 20:35:40 0° 257° (WSW) 2,698 7.0 -35.2°
Reaches altitude 10° 20:38:19 10° 274° (W) 1,794 6.0 -35.6°
Enters shadow 20:38:56 13° 281° (W) 1,616 5.7 -35.7°
